Year,Month,Day,Hour,Minute,Value (Times are PST for temperature in C)
2007,07,14,00,00,13.30
2007,07,14,00,01,13.30
2007,07,14,00,02,13.30
2007,07,14,00,03,13.20
2007,07,14,00,04,13.20
2007,07,14,00,05,13.20
2007,07,14,00,06,13.20
2007,07,14,00,07,13.20
2007,07,14,00,08,13.20
2007,07,14,00,09,13.20
2007,07,14,00,10,13.20
2007,07,14,00,11,13.20
2007,07,14,00,12,13.20
2007,07,14,00,13,13.20
2007,07,14,00,14,13.20
2007,07,14,00,15,13.20
2007,07,14,00,16,13.20
2007,07,14,00,17,13.20
2007,07,14,00,18,13.20
2007,07,14,00,19,13.20
2007,07,14,00,20,13.20
2007,07,14,00,21,13.10
2007,07,14,00,22,13.10
2007,07,14,00,23,13.10
2007,07,14,00,24,13.00
2007,07,14,00,25,13.00
2007,07,14,00,26,13.00
2007,07,14,00,27,13.00
2007,07,14,00,28,13.00
2007,07,14,00,29,13.00
2007,07,14,00,30,13.00
2007,07,14,00,31,12.90
2007,07,14,00,32,12.90
2007,07,14,00,33,12.90
2007,07,14,00,34,12.80
2007,07,14,00,35,12.80
2007,07,14,00,36,12.80
2007,07,14,00,37,12.80
2007,07,14,00,38,12.80
2007,07,14,00,39,12.80
2007,07,14,00,40,12.80
2007,07,14,00,41,12.80
2007,07,14,00,42,12.80
2007,07,14,00,43,12.80
2007,07,14,00,44,12.80
2007,07,14,00,45,12.80
2007,07,14,00,46,12.80
2007,07,14,00,47,12.70
2007,07,14,00,48,12.70
2007,07,14,00,49,12.70
2007,07,14,00,50,12.70
2007,07,14,00,51,12.70
2007,07,14,00,52,12.80
2007,07,14,00,53,12.80
2007,07,14,00,54,12.80
2007,07,14,00,55,12.80
2007,07,14,00,56,12.80
2007,07,14,00,57,12.80
2007,07,14,00,58,12.80
2007,07,14,00,59,12.80
2007,07,14,01,00,12.80
2007,07,14,01,01,12.80
2007,07,14,01,02,12.80
2007,07,14,01,03,12.80
2007,07,14,01,04,12.80
2007,07,14,01,05,12.70
2007,07,14,01,06,12.70
2007,07,14,01,07,12.70
2007,07,14,01,08,12.70
2007,07,14,01,09,12.80
2007,07,14,01,10,12.80
2007,07,14,01,11,12.80
2007,07,14,01,12,12.80
2007,07,14,01,13,12.80
2007,07,14,01,14,12.80
2007,07,14,01,15,12.80
2007,07,14,01,16,12.80
2007,07,14,01,17,12.80
2007,07,14,01,18,12.80
2007,07,14,01,19,12.80
2007,07,14,01,20,12.80
2007,07,14,01,21,12.80
2007,07,14,01,22,12.80
2007,07,14,01,23,12.80
2007,07,14,01,24,12.70
2007,07,14,01,25,12.70
2007,07,14,01,26,12.70
2007,07,14,01,27,12.70
2007,07,14,01,28,12.60
2007,07,14,01,29,12.60
2007,07,14,01,30,12.60
2007,07,14,01,31,12.50
2007,07,14,01,32,12.50
2007,07,14,01,33,12.50
2007,07,14,01,34,12.50
2007,07,14,01,35,12.40
2007,07,14,01,36,12.40
2007,07,14,01,37,12.40
2007,07,14,01,38,12.40
2007,07,14,01,39,12.30
2007,07,14,01,40,12.30
2007,07,14,01,41,12.30
2007,07,14,01,42,12.30
2007,07,14,01,43,12.30
2007,07,14,01,44,12.30
2007,07,14,01,45,12.30
2007,07,14,01,46,12.30
2007,07,14,01,47,12.20
2007,07,14,01,48,12.10
2007,07,14,01,49,12.10
2007,07,14,01,50,12.00
2007,07,14,01,51,12.00
2007,07,14,01,52,12.00
2007,07,14,01,53,12.00
2007,07,14,01,54,12.00
2007,07,14,01,55,12.00
2007,07,14,01,56,11.90
2007,07,14,01,57,11.90
2007,07,14,01,58,11.90
2007,07,14,01,59,11.90
2007,07,14,02,00,11.90
2007,07,14,02,01,11.90
2007,07,14,02,02,11.90
2007,07,14,02,03,11.80
2007,07,14,02,04,11.80
2007,07,14,02,05,11.80
2007,07,14,02,06,11.80
2007,07,14,02,07,11.80
2007,07,14,02,08,11.80
2007,07,14,02,09,11.80
2007,07,14,02,10,11.80
2007,07,14,02,11,11.80
2007,07,14,02,12,11.80
2007,07,14,02,13,11.80
2007,07,14,02,14,11.80
2007,07,14,02,15,11.80
2007,07,14,02,16,11.80
2007,07,14,02,17,11.80
2007,07,14,02,18,11.80
2007,07,14,02,19,11.80
2007,07,14,02,20,11.80
2007,07,14,02,21,11.80
2007,07,14,02,22,11.80
2007,07,14,02,23,11.70
2007,07,14,02,24,11.70
2007,07,14,02,25,11.70
2007,07,14,02,26,11.70
2007,07,14,02,27,11.70
2007,07,14,02,28,11.70
2007,07,14,02,29,11.60
2007,07,14,02,30,11.60
2007,07,14,02,31,11.60
2007,07,14,02,32,11.60
2007,07,14,02,33,11.60
2007,07,14,02,34,11.60
2007,07,14,02,35,11.60
2007,07,14,02,36,11.60
2007,07,14,02,37,11.60
2007,07,14,02,38,11.60
2007,07,14,02,39,11.60
2007,07,14,02,40,11.60
2007,07,14,02,41,11.60
2007,07,14,02,42,11.60
2007,07,14,02,43,11.60
2007,07,14,02,44,11.60
2007,07,14,02,45,11.60
2007,07,14,02,46,11.60
2007,07,14,02,47,11.60
2007,07,14,02,48,11.60
2007,07,14,02,49,11.60
2007,07,14,02,50,11.60
2007,07,14,02,51,11.60
2007,07,14,02,52,11.60
2007,07,14,02,53,11.60
2007,07,14,02,54,11.60
2007,07,14,02,55,11.70
2007,07,14,02,56,11.70
2007,07,14,02,57,11.70
2007,07,14,02,58,11.70
2007,07,14,02,59,11.70
2007,07,14,03,00,11.70
2007,07,14,03,01,11.70
2007,07,14,03,02,11.80
2007,07,14,03,03,11.80
2007,07,14,03,04,11.80
2007,07,14,03,05,11.80
2007,07,14,03,06,11.80
2007,07,14,03,07,11.80
2007,07,14,03,08,11.80
2007,07,14,03,09,11.80
2007,07,14,03,10,11.80
2007,07,14,03,11,11.80
2007,07,14,03,12,11.80
2007,07,14,03,13,11.80
2007,07,14,03,14,11.80
2007,07,14,03,15,11.80
2007,07,14,03,16,11.80
2007,07,14,03,17,11.80
2007,07,14,03,18,11.80
2007,07,14,03,19,11.80
2007,07,14,03,20,11.80
2007,07,14,03,21,11.80
2007,07,14,03,22,11.80
2007,07,14,03,23,11.80
2007,07,14,03,24,11.80
2007,07,14,03,25,11.80
2007,07,14,03,26,11.80
2007,07,14,03,27,11.80
2007,07,14,03,28,11.80
2007,07,14,03,29,11.80
2007,07,14,03,30,11.80
2007,07,14,03,31,11.80
2007,07,14,03,32,11.80
2007,07,14,03,33,11.80
2007,07,14,03,34,11.80
2007,07,14,03,35,11.80
2007,07,14,03,36,11.80
2007,07,14,03,37,11.80
2007,07,14,03,38,11.80
2007,07,14,03,39,11.80
2007,07,14,03,40,11.80
2007,07,14,03,41,11.80
2007,07,14,03,42,11.90
2007,07,14,03,43,11.90
2007,07,14,03,44,11.90
2007,07,14,03,45,11.80
2007,07,14,03,46,11.80
2007,07,14,03,47,11.80
2007,07,14,03,48,11.80
2007,07,14,03,49,11.80
2007,07,14,03,50,11.80
2007,07,14,03,51,11.80
2007,07,14,03,52,11.80
2007,07,14,03,53,11.80
2007,07,14,03,54,11.80
2007,07,14,03,55,11.90
2007,07,14,03,56,12.00
2007,07,14,03,57,12.10
2007,07,14,03,58,12.20
2007,07,14,03,59,12.20
2007,07,14,04,00,12.10
2007,07,14,04,01,12.10
2007,07,14,04,02,12.00
2007,07,14,04,03,12.00
2007,07,14,04,04,11.90
2007,07,14,04,05,11.90
2007,07,14,04,06,11.80
2007,07,14,04,07,11.80
2007,07,14,04,08,11.80
2007,07,14,04,09,11.80
2007,07,14,04,10,11.80
2007,07,14,04,11,11.80
2007,07,14,04,12,11.80
2007,07,14,04,13,11.80
2007,07,14,04,14,11.70
2007,07,14,04,15,11.70
2007,07,14,04,16,11.70
2007,07,14,04,17,11.70
2007,07,14,04,18,11.80
2007,07,14,04,19,11.80
2007,07,14,04,20,11.80
2007,07,14,04,21,11.80
2007,07,14,04,22,11.80
2007,07,14,04,23,11.80
2007,07,14,04,24,11.80
2007,07,14,04,25,11.80
2007,07,14,04,26,11.80
2007,07,14,04,27,11.80
2007,07,14,04,28,11.80
2007,07,14,04,29,11.80
2007,07,14,04,30,11.80
2007,07,14,04,31,11.80
2007,07,14,04,32,11.70
2007,07,14,04,33,11.70
2007,07,14,04,34,11.70
2007,07,14,04,35,11.80
2007,07,14,04,36,11.80
2007,07,14,04,37,11.70
2007,07,14,04,38,11.70
2007,07,14,04,39,11.70
2007,07,14,04,40,11.70
2007,07,14,04,41,11.60
2007,07,14,04,42,11.60
2007,07,14,04,43,11.60
2007,07,14,04,44,11.60
2007,07,14,04,45,11.50
2007,07,14,04,46,11.40
2007,07,14,04,47,11.40
2007,07,14,04,48,11.40
2007,07,14,04,49,11.40
2007,07,14,04,50,11.40
2007,07,14,04,51,11.40
2007,07,14,04,52,11.30
2007,07,14,04,53,11.30
2007,07,14,04,54,11.30
2007,07,14,04,55,11.30
2007,07,14,04,56,11.20
2007,07,14,04,57,11.20
2007,07,14,04,58,11.20
2007,07,14,04,59,11.20
2007,07,14,05,00,11.20
2007,07,14,05,01,11.20
2007,07,14,05,02,11.20
2007,07,14,05,03,11.20
2007,07,14,05,04,11.20
2007,07,14,05,05,11.20
2007,07,14,05,06,11.10
2007,07,14,05,07,11.10
2007,07,14,05,08,11.10
2007,07,14,05,09,11.10
2007,07,14,05,10,11.10
2007,07,14,05,11,11.10
2007,07,14,05,12,11.20
2007,07,14,05,13,11.20
2007,07,14,05,14,11.20
2007,07,14,05,15,11.20
2007,07,14,05,16,11.20
2007,07,14,05,17,11.20
2007,07,14,05,18,11.20
2007,07,14,05,19,11.20
2007,07,14,05,20,11.20
2007,07,14,05,21,11.20
2007,07,14,05,22,11.20
2007,07,14,05,23,11.20
2007,07,14,05,24,11.20
2007,07,14,05,25,11.20
2007,07,14,05,26,11.20
2007,07,14,05,27,11.10
2007,07,14,05,28,11.10
2007,07,14,05,29,11.10
2007,07,14,05,30,11.20
2007,07,14,05,31,11.20
2007,07,14,05,32,11.20
2007,07,14,05,33,11.20
2007,07,14,05,34,11.20
2007,07,14,05,35,11.20
2007,07,14,05,36,11.30
2007,07,14,05,37,11.30
2007,07,14,05,38,11.30
2007,07,14,05,39,11.30
2007,07,14,05,40,11.30
2007,07,14,05,41,11.30
2007,07,14,05,42,11.30
2007,07,14,05,43,11.40
2007,07,14,05,44,11.40
2007,07,14,05,45,11.40
2007,07,14,05,46,11.40
2007,07,14,05,47,11.40
2007,07,14,05,48,11.40
2007,07,14,05,49,11.40
2007,07,14,05,50,11.40
2007,07,14,05,51,11.50
2007,07,14,05,52,11.60
2007,07,14,05,53,11.60
2007,07,14,05,54,11.60
2007,07,14,05,55,11.60
2007,07,14,05,56,11.60
2007,07,14,05,57,11.60
2007,07,14,05,58,11.60
2007,07,14,05,59,11.60
2007,07,14,06,00,11.70
2007,07,14,06,01,11.70
2007,07,14,06,02,11.70
2007,07,14,06,03,11.70
2007,07,14,06,04,11.70
2007,07,14,06,05,11.80
2007,07,14,06,06,11.80
2007,07,14,06,07,11.80
2007,07,14,06,08,11.80
2007,07,14,06,09,11.80
2007,07,14,06,10,11.80
2007,07,14,06,11,11.80
2007,07,14,06,12,11.80
2007,07,14,06,13,11.80
2007,07,14,06,14,11.80
2007,07,14,06,15,11.80
2007,07,14,06,16,11.80
2007,07,14,06,17,11.80
2007,07,14,06,18,11.80
2007,07,14,06,19,11.80
2007,07,14,06,20,11.80
2007,07,14,06,21,11.80
2007,07,14,06,22,11.90
2007,07,14,06,23,11.90
2007,07,14,06,24,11.90
2007,07,14,06,25,11.90
2007,07,14,06,26,11.90
2007,07,14,06,27,12.00
2007,07,14,06,28,12.00
2007,07,14,06,29,12.00
2007,07,14,06,30,12.00
2007,07,14,06,31,12.00
2007,07,14,06,32,12.00
2007,07,14,06,33,12.00
2007,07,14,06,34,12.00
2007,07,14,06,35,12.00
2007,07,14,06,36,12.00
2007,07,14,06,37,12.00
2007,07,14,06,38,12.00
2007,07,14,06,39,12.00
2007,07,14,06,40,12.00
2007,07,14,06,41,12.00
2007,07,14,06,42,12.00
2007,07,14,06,43,12.00
2007,07,14,06,44,12.00
2007,07,14,06,45,12.00
2007,07,14,06,46,12.00
2007,07,14,06,47,12.00
2007,07,14,06,48,12.00
2007,07,14,06,49,12.00
2007,07,14,06,50,12.00
2007,07,14,06,51,12.10
2007,07,14,06,52,12.10
2007,07,14,06,53,12.10
2007,07,14,06,54,12.10
2007,07,14,06,55,12.20
2007,07,14,06,56,12.20
2007,07,14,06,57,12.20
2007,07,14,06,58,12.30
2007,07,14,06,59,12.30
2007,07,14,07,00,12.30
2007,07,14,07,01,12.30
2007,07,14,07,02,12.30
2007,07,14,07,03,12.30
2007,07,14,07,04,12.30
2007,07,14,07,05,12.40
2007,07,14,07,06,12.40
2007,07,14,07,07,12.40
2007,07,14,07,08,12.50
2007,07,14,07,09,12.50
2007,07,14,07,10,12.60
2007,07,14,07,11,12.60
2007,07,14,07,12,12.70
2007,07,14,07,13,12.70
2007,07,14,07,14,12.80
2007,07,14,07,15,12.80
2007,07,14,07,16,12.80
2007,07,14,07,17,12.90
2007,07,14,07,18,13.00
2007,07,14,07,19,13.00
2007,07,14,07,20,13.10
2007,07,14,07,21,13.10
2007,07,14,07,22,13.20
2007,07,14,07,23,13.30
2007,07,14,07,24,13.30
2007,07,14,07,25,13.30
2007,07,14,07,26,13.40
2007,07,14,07,27,13.50
2007,07,14,07,28,13.50
2007,07,14,07,29,13.50
2007,07,14,07,30,13.50
2007,07,14,07,31,13.50
2007,07,14,07,32,13.50
2007,07,14,07,33,13.60
2007,07,14,07,34,13.60
2007,07,14,07,35,13.70
2007,07,14,07,36,13.70
2007,07,14,07,37,13.80
2007,07,14,07,38,13.80
2007,07,14,07,39,13.90
2007,07,14,07,40,13.90
2007,07,14,07,41,13.90
2007,07,14,07,42,13.90
2007,07,14,07,43,14.00
2007,07,14,07,44,14.00
2007,07,14,07,45,14.00
2007,07,14,07,46,14.00
2007,07,14,07,47,14.00
2007,07,14,07,48,14.00
2007,07,14,07,49,14.00
2007,07,14,07,50,14.00
2007,07,14,07,51,14.00
2007,07,14,07,52,14.00
2007,07,14,07,53,14.00
2007,07,14,07,54,14.00
2007,07,14,07,55,14.10
2007,07,14,07,56,14.10
2007,07,14,07,57,14.10
2007,07,14,07,58,14.20
2007,07,14,07,59,14.20
2007,07,14,08,00,14.20
2007,07,14,08,01,14.30
2007,07,14,08,02,14.30
2007,07,14,08,03,14.40
2007,07,14,08,04,14.50
2007,07,14,08,05,14.50
2007,07,14,08,06,14.60
2007,07,14,08,07,14.60
2007,07,14,08,08,14.70
2007,07,14,08,09,14.70
2007,07,14,08,10,14.80
2007,07,14,08,11,14.80
2007,07,14,08,12,14.80
2007,07,14,08,13,14.90
2007,07,14,08,14,15.00
2007,07,14,08,15,15.00
2007,07,14,08,16,15.10
2007,07,14,08,17,15.10
2007,07,14,08,18,15.10
2007,07,14,08,19,15.20
2007,07,14,08,20,15.30
2007,07,14,08,21,15.40
2007,07,14,08,22,15.50
2007,07,14,08,23,15.50
2007,07,14,08,24,15.60
2007,07,14,08,25,15.70
2007,07,14,08,26,15.80
2007,07,14,08,27,16.00
2007,07,14,08,28,16.10
2007,07,14,08,29,16.20
2007,07,14,08,30,16.30
2007,07,14,08,31,16.40
2007,07,14,08,32,16.40
2007,07,14,08,33,16.40
2007,07,14,08,34,16.50
2007,07,14,08,35,16.60
2007,07,14,08,36,16.70
2007,07,14,08,37,16.70
2007,07,14,08,38,16.80
2007,07,14,08,39,16.90
2007,07,14,08,40,16.90
2007,07,14,08,41,17.00
2007,07,14,08,42,17.20
2007,07,14,08,43,17.20
2007,07,14,08,44,17.30
2007,07,14,08,45,17.30
2007,07,14,08,46,17.40
2007,07,14,08,47,17.40
2007,07,14,08,48,17.50
2007,07,14,08,49,17.50
2007,07,14,08,50,17.40
2007,07,14,08,51,17.40
2007,07,14,08,52,17.40
2007,07,14,08,53,17.30
2007,07,14,08,54,17.30
2007,07,14,08,55,17.30
2007,07,14,08,56,17.40
2007,07,14,08,57,17.40
2007,07,14,08,58,17.50
2007,07,14,08,59,17.50
2007,07,14,09,00,17.60
2007,07,14,09,01,17.70
2007,07,14,09,02,17.70
2007,07,14,09,03,17.80
2007,07,14,09,04,17.90
2007,07,14,09,05,18.00
2007,07,14,09,06,18.10
2007,07,14,09,07,18.20
2007,07,14,09,08,18.40
2007,07,14,09,09,18.50
2007,07,14,09,10,18.60
2007,07,14,09,11,18.70
2007,07,14,09,12,18.90
2007,07,14,09,13,19.00
2007,07,14,09,14,19.10
2007,07,14,09,15,19.30
2007,07,14,09,16,19.40
2007,07,14,09,17,19.50
2007,07,14,09,18,19.50
2007,07,14,09,19,19.60
2007,07,14,09,20,19.70
2007,07,14,09,21,19.70
2007,07,14,09,22,19.70
2007,07,14,09,23,19.70
2007,07,14,09,24,19.60
2007,07,14,09,25,19.50
2007,07,14,09,26,19.60
2007,07,14,09,27,19.60
2007,07,14,09,28,19.60
2007,07,14,09,29,19.70
2007,07,14,09,30,19.70
2007,07,14,09,31,19.70
2007,07,14,09,32,19.70
2007,07,14,09,33,19.70
2007,07,14,09,34,19.60
2007,07,14,09,35,19.50
2007,07,14,09,36,19.40
2007,07,14,09,37,19.30
2007,07,14,09,38,19.20
2007,07,14,09,39,19.10
2007,07,14,09,40,19.10
2007,07,14,09,41,19.10
2007,07,14,09,42,19.20
2007,07,14,09,43,19.30
2007,07,14,09,44,19.40
2007,07,14,09,45,19.40
2007,07,14,09,46,19.40
2007,07,14,09,47,19.40
2007,07,14,09,48,19.40
2007,07,14,09,49,19.50
2007,07,14,09,50,19.50
2007,07,14,09,51,19.50
2007,07,14,09,52,19.40
2007,07,14,09,53,19.30
2007,07,14,09,54,19.10
2007,07,14,09,55,18.90
2007,07,14,09,56,18.70
2007,07,14,09,57,18.40
2007,07,14,09,58,18.10
2007,07,14,09,59,17.80
2007,07,14,10,00,17.50
2007,07,14,10,01,17.30
2007,07,14,10,02,17.10
2007,07,14,10,03,17.00
2007,07,14,10,04,16.90
2007,07,14,10,05,17.00
2007,07,14,10,06,17.20
2007,07,14,10,07,17.10
2007,07,14,10,08,17.10
2007,07,14,10,09,17.00
2007,07,14,10,10,16.90
2007,07,14,10,11,16.80
2007,07,14,10,12,16.70
2007,07,14,10,13,16.50
2007,07,14,10,14,16.40
2007,07,14,10,15,16.30
2007,07,14,10,16,16.30
2007,07,14,10,17,16.20
2007,07,14,10,18,16.30
2007,07,14,10,19,16.30
2007,07,14,10,20,16.30
2007,07,14,10,21,16.40
2007,07,14,10,22,16.50
2007,07,14,10,23,16.60
2007,07,14,10,24,16.80
2007,07,14,10,25,16.80
2007,07,14,10,26,16.80
2007,07,14,10,27,16.70
2007,07,14,10,28,16.70
2007,07,14,10,29,16.70
2007,07,14,10,30,16.80
2007,07,14,10,31,16.80
2007,07,14,10,32,16.80
2007,07,14,10,33,16.90
2007,07,14,10,34,17.00
2007,07,14,10,35,17.10
2007,07,14,10,36,17.10
2007,07,14,10,37,16.90
2007,07,14,10,38,16.80
2007,07,14,10,39,16.80
2007,07,14,10,40,16.80
2007,07,14,10,41,16.80
2007,07,14,10,42,16.90
2007,07,14,10,43,16.90
2007,07,14,10,44,17.00
2007,07,14,10,45,16.90
2007,07,14,10,46,16.90
2007,07,14,10,47,16.80
2007,07,14,10,48,16.70
2007,07,14,10,49,16.70
2007,07,14,10,50,16.80
2007,07,14,10,51,16.80
2007,07,14,10,52,16.80
2007,07,14,10,53,16.90
2007,07,14,10,54,17.00
2007,07,14,10,55,17.00
2007,07,14,10,56,17.00
2007,07,14,10,57,17.00
2007,07,14,10,58,17.00
2007,07,14,10,59,17.00
2007,07,14,11,00,17.10
2007,07,14,11,01,17.10
2007,07,14,11,02,17.20
2007,07,14,11,03,17.20
2007,07,14,11,04,17.30
2007,07,14,11,05,17.30
2007,07,14,11,06,17.30
2007,07,14,11,07,17.30
2007,07,14,11,08,17.50
2007,07,14,11,09,17.50
2007,07,14,11,10,17.60
2007,07,14,11,11,17.80
2007,07,14,11,12,17.90
2007,07,14,11,13,18.10
2007,07,14,11,14,18.20
2007,07,14,11,15,18.20
2007,07,14,11,16,18.20
2007,07,14,11,17,18.30
2007,07,14,11,18,18.30
2007,07,14,11,19,18.40
2007,07,14,11,20,18.40
2007,07,14,11,21,18.40
2007,07,14,11,22,18.60
2007,07,14,11,23,18.70
2007,07,14,11,24,18.90
2007,07,14,11,25,19.00
2007,07,14,11,26,18.90
2007,07,14,11,27,18.90
2007,07,14,11,28,18.90
2007,07,14,11,29,18.90
2007,07,14,11,30,18.90
2007,07,14,11,31,19.00
2007,07,14,11,32,18.90
2007,07,14,11,33,18.90
2007,07,14,11,34,19.00
2007,07,14,11,35,18.90
2007,07,14,11,36,18.90
2007,07,14,11,37,18.90
2007,07,14,11,38,18.90
2007,07,14,11,39,19.00
2007,07,14,11,40,19.10
2007,07,14,11,41,19.10
2007,07,14,11,42,19.10
2007,07,14,11,43,19.00
2007,07,14,11,44,18.80
2007,07,14,11,45,18.70
2007,07,14,11,46,18.60
2007,07,14,11,47,18.60
2007,07,14,11,48,18.50
2007,07,14,11,49,18.40
2007,07,14,11,50,18.40
2007,07,14,11,51,18.50
2007,07,14,11,52,18.50
2007,07,14,11,53,18.40
2007,07,14,11,54,18.30
2007,07,14,11,55,18.30
2007,07,14,11,56,18.40
2007,07,14,11,57,18.30
2007,07,14,11,58,18.30
2007,07,14,11,59,18.30
2007,07,14,12,00,18.30
2007,07,14,12,01,18.30
2007,07,14,12,02,18.50
2007,07,14,12,03,18.70
2007,07,14,12,04,18.80
2007,07,14,12,05,18.90
2007,07,14,12,06,18.90
2007,07,14,12,07,18.90
2007,07,14,12,08,19.10
2007,07,14,12,09,19.20
2007,07,14,12,10,19.20
2007,07,14,12,11,19.00
2007,07,14,12,12,18.90
2007,07,14,12,13,18.70
2007,07,14,12,14,18.80
2007,07,14,12,15,18.80
2007,07,14,12,16,18.80
2007,07,14,12,17,18.70
2007,07,14,12,18,18.60
2007,07,14,12,19,18.50
2007,07,14,12,20,18.50
2007,07,14,12,21,18.50
2007,07,14,12,22,18.30
2007,07,14,12,23,18.20
2007,07,14,12,24,18.30
2007,07,14,12,25,18.40
2007,07,14,12,26,18.60
2007,07,14,12,27,18.70
2007,07,14,12,28,18.70
2007,07,14,12,29,18.60
2007,07,14,12,30,18.50
2007,07,14,12,31,18.20
2007,07,14,12,32,18.10
2007,07,14,12,33,18.10
2007,07,14,12,34,18.20
2007,07,14,12,35,18.30
2007,07,14,12,36,18.20
2007,07,14,12,37,18.20
2007,07,14,12,38,18.30
2007,07,14,12,39,18.30
2007,07,14,12,40,18.40
2007,07,14,12,41,18.40
2007,07,14,12,42,18.30
2007,07,14,12,43,18.20
2007,07,14,12,44,18.40
2007,07,14,12,45,18.50
2007,07,14,12,46,18.60
2007,07,14,12,47,18.50
2007,07,14,12,48,18.40
2007,07,14,12,49,18.30
2007,07,14,12,50,18.20
2007,07,14,12,51,18.20
2007,07,14,12,52,18.20
2007,07,14,12,53,18.20
2007,07,14,12,54,18.20
2007,07,14,12,55,18.10
2007,07,14,12,56,18.10
2007,07,14,12,57,18.00
2007,07,14,12,58,18.00
2007,07,14,12,59,18.10
2007,07,14,13,00,17.90
2007,07,14,13,01,17.90
2007,07,14,13,02,17.90
2007,07,14,13,03,17.90
2007,07,14,13,04,17.90
2007,07,14,13,05,17.90
2007,07,14,13,06,17.90
2007,07,14,13,07,17.90
2007,07,14,13,08,17.90
2007,07,14,13,09,17.90
2007,07,14,13,10,17.90
2007,07,14,13,11,17.90
2007,07,14,13,12,17.90
2007,07,14,13,13,18.00
2007,07,14,13,14,18.00
2007,07,14,13,15,17.90
2007,07,14,13,16,17.90
2007,07,14,13,17,17.90
2007,07,14,13,18,17.80
2007,07,14,13,19,17.70
2007,07,14,13,20,17.90
2007,07,14,13,21,18.00
2007,07,14,13,22,18.30
2007,07,14,13,23,18.70
2007,07,14,13,24,18.90
2007,07,14,13,25,19.00
2007,07,14,13,26,19.00
2007,07,14,13,27,18.90
2007,07,14,13,28,18.70
2007,07,14,13,29,18.70
2007,07,14,13,30,18.60
2007,07,14,13,31,18.60
2007,07,14,13,32,18.90
2007,07,14,13,33,18.90
2007,07,14,13,34,18.80
2007,07,14,13,35,18.80
2007,07,14,13,36,18.80
2007,07,14,13,37,18.90
2007,07,14,13,38,18.80
2007,07,14,13,39,18.70
2007,07,14,13,40,18.60
2007,07,14,13,41,18.70
2007,07,14,13,42,18.80
2007,07,14,13,43,18.90
2007,07,14,13,44,18.90
2007,07,14,13,45,18.90
2007,07,14,13,46,18.90
2007,07,14,13,47,19.10
2007,07,14,13,48,19.30
2007,07,14,13,49,19.30
2007,07,14,13,50,19.20
2007,07,14,13,51,19.10
2007,07,14,13,52,19.10
2007,07,14,13,53,19.20
2007,07,14,13,54,19.30
2007,07,14,13,55,19.30
2007,07,14,13,56,19.00
2007,07,14,13,57,18.90
2007,07,14,13,58,18.70
2007,07,14,13,59,18.50
2007,07,14,14,00,18.30
2007,07,14,14,01,18.20
2007,07,14,14,02,18.30
2007,07,14,14,03,18.40
2007,07,14,14,04,18.50
2007,07,14,14,05,18.50
2007,07,14,14,06,18.60
2007,07,14,14,07,18.70
2007,07,14,14,08,18.60
2007,07,14,14,09,18.40
2007,07,14,14,10,18.10
2007,07,14,14,11,18.00
2007,07,14,14,12,17.90
2007,07,14,14,13,17.80
2007,07,14,14,14,17.70
2007,07,14,14,15,17.60
2007,07,14,14,16,17.50
2007,07,14,14,17,17.30
2007,07,14,14,18,17.20
2007,07,14,14,19,17.10
2007,07,14,14,20,17.00
2007,07,14,14,21,16.80
2007,07,14,14,22,16.70
2007,07,14,14,23,16.70
2007,07,14,14,24,16.90
2007,07,14,14,25,16.90
2007,07,14,14,26,16.90
2007,07,14,14,27,16.90
2007,07,14,14,28,17.00
2007,07,14,14,29,17.00
2007,07,14,14,30,17.10
2007,07,14,14,31,17.30
2007,07,14,14,32,17.40
2007,07,14,14,33,17.50
2007,07,14,14,34,17.60
2007,07,14,14,35,17.60
2007,07,14,14,36,17.70
2007,07,14,14,37,17.80
2007,07,14,14,38,17.90
2007,07,14,14,39,17.90
2007,07,14,14,40,17.90
2007,07,14,14,41,17.90
2007,07,14,14,42,17.80
2007,07,14,14,43,17.80
2007,07,14,14,44,17.70
2007,07,14,14,45,17.80
2007,07,14,14,46,17.90
2007,07,14,14,47,17.90
2007,07,14,14,48,17.90
2007,07,14,14,49,17.80
2007,07,14,14,50,17.70
2007,07,14,14,51,17.70
2007,07,14,14,52,17.70
2007,07,14,14,53,17.70
2007,07,14,14,54,17.70
2007,07,14,14,55,17.90
2007,07,14,14,56,17.90
2007,07,14,14,57,17.80
2007,07,14,14,58,17.70
2007,07,14,14,59,17.70
2007,07,14,15,00,17.70
2007,07,14,15,01,17.80
2007,07,14,15,02,17.80
2007,07,14,15,03,17.80
2007,07,14,15,04,17.80
2007,07,14,15,05,17.80
2007,07,14,15,06,17.90
2007,07,14,15,07,17.80
2007,07,14,15,08,17.90
2007,07,14,15,09,17.90
2007,07,14,15,10,17.90
2007,07,14,15,11,18.00
2007,07,14,15,12,18.10
2007,07,14,15,13,18.00
2007,07,14,15,14,17.80
2007,07,14,15,15,17.70
2007,07,14,15,16,17.70
2007,07,14,15,17,17.60
2007,07,14,15,18,17.60
2007,07,14,15,19,17.60
2007,07,14,15,20,17.40
2007,07,14,15,21,17.30
2007,07,14,15,22,17.20
2007,07,14,15,23,17.00
2007,07,14,15,24,16.90
2007,07,14,15,25,16.90
2007,07,14,15,26,16.80
2007,07,14,15,27,16.70
2007,07,14,15,28,16.70
2007,07,14,15,29,16.70
2007,07,14,15,30,16.90
2007,07,14,15,31,17.00
2007,07,14,15,32,17.20
2007,07,14,15,33,17.50
2007,07,14,15,34,17.60
2007,07,14,15,35,17.80
2007,07,14,15,36,17.90
2007,07,14,15,37,17.90
2007,07,14,15,38,17.90
2007,07,14,15,39,17.90
2007,07,14,15,40,17.70
2007,07,14,15,41,17.40
2007,07,14,15,42,17.10
2007,07,14,15,43,16.90
2007,07,14,15,44,16.70
2007,07,14,15,45,16.50
2007,07,14,15,46,16.40
2007,07,14,15,47,16.30
2007,07,14,15,48,16.20
2007,07,14,15,49,16.20
2007,07,14,15,50,16.10
2007,07,14,15,51,16.10
2007,07,14,15,52,16.10
2007,07,14,15,53,16.10
2007,07,14,15,54,16.10
2007,07,14,15,55,16.10
2007,07,14,15,56,16.20
2007,07,14,15,57,16.30
2007,07,14,15,58,16.40
2007,07,14,15,59,16.40
2007,07,14,16,00,16.40
2007,07,14,16,01,16.50
2007,07,14,16,02,16.70
2007,07,14,16,03,16.70
2007,07,14,16,04,16.80
2007,07,14,16,05,16.90
2007,07,14,16,06,16.90
2007,07,14,16,07,16.90
2007,07,14,16,08,16.90
2007,07,14,16,09,17.00
2007,07,14,16,10,17.20
2007,07,14,16,11,17.20
2007,07,14,16,12,17.30
2007,07,14,16,13,17.20
2007,07,14,16,14,17.30
2007,07,14,16,15,17.30
2007,07,14,16,16,17.30
2007,07,14,16,17,17.10
2007,07,14,16,18,17.00
2007,07,14,16,19,16.90
2007,07,14,16,20,16.70
2007,07,14,16,21,16.50
2007,07,14,16,22,16.40
2007,07,14,16,23,16.30
2007,07,14,16,24,16.30
2007,07,14,16,25,16.50
2007,07,14,16,26,16.70
2007,07,14,16,27,16.70
2007,07,14,16,28,16.60
2007,07,14,16,29,16.60
2007,07,14,16,30,16.50
2007,07,14,16,31,16.30
2007,07,14,16,32,16.20
2007,07,14,16,33,16.10
2007,07,14,16,34,16.10
2007,07,14,16,35,16.10
2007,07,14,16,36,16.20
2007,07,14,16,37,16.20
2007,07,14,16,38,16.30
2007,07,14,16,39,16.30
2007,07,14,16,40,16.30
2007,07,14,16,41,16.30
2007,07,14,16,42,16.40
2007,07,14,16,43,16.30
2007,07,14,16,44,16.30
2007,07,14,16,45,16.30
2007,07,14,16,46,16.20
2007,07,14,16,47,16.20
2007,07,14,16,48,16.30
2007,07,14,16,49,16.30
2007,07,14,16,50,16.40
2007,07,14,16,51,16.40
2007,07,14,16,52,16.40
2007,07,14,16,53,16.40
2007,07,14,16,54,16.30
2007,07,14,16,55,16.20
2007,07,14,16,56,16.10
2007,07,14,16,57,16.10
2007,07,14,16,58,16.00
2007,07,14,16,59,15.90
2007,07,14,17,00,15.90
2007,07,14,17,01,16.00
2007,07,14,17,02,16.10
2007,07,14,17,03,15.90
2007,07,14,17,04,15.90
2007,07,14,17,05,15.90
2007,07,14,17,06,15.90
2007,07,14,17,07,15.80
2007,07,14,17,08,15.70
2007,07,14,17,09,15.70
2007,07,14,17,10,15.60
2007,07,14,17,11,15.60
2007,07,14,17,12,15.60
2007,07,14,17,13,15.60
2007,07,14,17,14,15.70
2007,07,14,17,15,15.80
2007,07,14,17,16,15.80
2007,07,14,17,17,15.80
2007,07,14,17,18,15.90
2007,07,14,17,19,15.90